Regional Weather Roundup
Issued by NWS Newport/Morehead, NC

Current Version | Previous Version | Graphics & Text | Print | Product List | Glossary On
Versions: 1 2 3 4 5 6 7 8 9 10 11 12 13 14 15 16 17 18 19 20 21 22 23 24 25 26 27 28 29 30 31 32 33 34 35 36 37 38 39 40 41 42 43 44 45 46 47 48 49 50
000 ASUS42 KMHX 011512 RWRMHX WEATHER ROUNDUP FOR EASTERN NORTH CAROLINA NATIONAL WEATHER SERVICE NEWPORT/MOREHEAD CITY NC 1000 AM EST SUN MAR 01 2015 NOTE: "FAIR" INDICATES FEW OR NO CLOUDS BELOW 12,000 FEET WITH NO SIGNIFICANT WEATHER AND/OR OBSTRUCTIONS TO VISIBILITY NCZ015>017-031-032-045>047-102-103-011600- NORTH COAST CITY SKY/WX TMP DP RH WIND PRES REMARKS EDENTON DRIZZLE 35 32 90 N5 30.58F ELIZABETH CITY LGT RAIN 37 33 85 N6 30.58F KITTY HAWK RAIN 43 41 91 CALM 30.55S MANTEO DRIZZLE 46 43 87 CALM 30.57R $$ NCZ045>047-081-094-103-104-011600- CENTRAL COAST CITY SKY/WX TMP DP RH WIND PRES REMARKS FRISCO PTSUNNY 50 44 80 SE13G20 30.55S SWANQUARTER N/A 43 N/A N/A N6 30.50F $$ NCZ095-097-098-100-101-011600- SOUTHERN COAST CITY SKY/WX TMP DP RH WIND PRES REMARKS BEAUFORT CLOUDY 51 43 74 NE8 30.53F CEDAR ISLAND N/A 39 N/A N/A NW5 30.59S JACKSONVILLE CLOUDY 46 36 68 N7 30.53F PINEY ISLAND N/A N/A N/A N/A MISG 30.54F WILMINGTON CLOUDY 48 39 71 NE5 30.51F $$ NCZ011>013-027>030-043-044-078>080-089-090>093-098-011600- COASTAL PLAIN CITY SKY/WX TMP DP RH WIND PRES REMARKS AHOSKIE LGT SNOW 30 28 93 CALM 30.63R CLINTON CLOUDY 35 32 88 N8 30.55F ELIZABETHTOWN CLOUDY 37 32 84 N3 30.53F GOLDSBORO CLOUDY 33 33 99 N8 30.56F GREENVILLE LGT RAIN 32 32 100 N6 30.58F HAVELOCK PTSUNNY 47 38 71 NE7 30.55F KENANSVILLE CLOUDY 35 30 82 N7 30.58R KINSTON CLOUDY 34 32 93 N6 30.58S NEW BERN PTSUNNY 39 34 82 NE6 30.56F RICHLANDS CLOUDY 39 32 75 NE7 30.55S ROCKY MOUNT MIX PCPN 31 29 92 NE7 30.58F FOG WASHINGTON LGT RAIN 35 32 89 N6 30.58R WHITEVILLE CLOUDY 39 33 79 NE5 30.50F $$ AMZ130-135-150-152-154-156-158-170-250-252-270-ANZ085-086-088-633-658-670-011600- MARINE OBSERVATIONS STATION/POSITION TIME TEMP WIND PRES WAVE SWELL AIR SEA DIR/SP/G HT/PER HT/PER (UTC) (F) (DEG/KT/KT) (MB) (FT/S) (FT/S) CHESAPEAKE LIGHT 1400 36 40/ 17/ 18 1036.1 64 E VA BEACH 1450 57 62 160/ 16/ 19 1034.7 4/ 4 2/10 DUCK 1400 36 34 360/ 9/ 12 1034.2 2 E DUCK 1411 34 N/A 3/10 10 NE DUCK 1422 36 N/A 4/ 8 2/11 OREGON INLET 1400 42 38 60/ 4/ 5 1034.5 HATTERAS CG 1406 48 38 110/ 8/ 10 1034.2 CAPE LOOKOUT 1500 47 30/ 7/ 9 1033.6 BEAUFORT LAB 1400 45 41 20/ 5/ 10 1033.2 27 SE WRIGHTSVLE NOT AVBL 5 SE WRIGHTSVLE NOT AVBL 225 S CAPE HAT 1450 68 72 100/ 16/ 21 1033.4 9/ 9 7/ 9 41 SE CHARLESTON 1450 69 67 130/ 17/ 19 1030.3 9/ 8 5/ 8 $$

USA.gov is the U.S. government's official web portal to all federal, state and local government web resources and services.